Weather History for Sparta, TN

Change the Weather History Date:

Friday, August 23, 2013

  Actual Average (KCSV) Record (KCSV)
Temperature  
Mean Temperature 76 °F 74 °F  
Max Temperature 89 °F 83 °F 98 °F (2007)
Min Temperature 64 °F 64 °F 45 °F (1956)
Degree Days  
Heating Degree Days 0    
Month to date heating degree days  
Since 1 June heating degree days  
Since 1 July heating degree days  
Cooling Degree Days 12    
Month to date cooling degree days  
Year to date cooling degree days  
Since 1 June cooling degree days  
Growing Degree Days 26 (Base 50)    
Moisture  
Dew Point 68 °F    
Average Humidity 83    
Maximum Humidity 100    
Minimum Humidity 52    
Precipitation  
Precipitation 0.00 in 0.11 in 2.49 in (1970)
Month to date precipitation 3.09  
Year to date precipitation 37.22  
Sea Level Pressure  
Sea Level Pressure 30.09 in    
Wind  
Wind Speed 1 mph (NNW)    
Max Wind Speed 8 mph    
Max Gust Speed -    
Visibility 7 miles    
Events      
T = Trace of Precipitation, MM = Missing Value Source: NWS Daily Summary

Daily Weather History Graph

Daily Weather History Graph

Search for Another Location

Airport:

Trip Planner

Search our weather history database for the weather conditions in past years. The results will help you decide how hot, cold, wet, or windy it might be!

Date:

Astronomy

Aug. 23, 2013 Rise Set
Actual Time 6:07 AM CDT 7:21 PM CDT
Civil Twilight 5:40 AM CDT 7:48 PM CDT
Nautical Twilight 5:08 AM CDT 8:20 PM CDT
Astronomical Twilight 4:35 AM CDT 8:53 PM CDT
Moon 8:48 PM CDT 8:54 AM CDT
Length of Visible Light 14h 08m
Length of Day
13h 14m
Waning Gibbous, 91% of the Moon is Illuminated
Aug 23
Waning Gibbous
Aug 28
Last Quarter
Sep 5
New
Sep 12
First Quarter
Sep 19
Full

Hourly Weather History & Observations

Time (CDT) Temp. Heat Index Dew Point Humidity Pressure Visibility Wind Dir Wind Speed Gust Speed Precip Events Conditions
12:35 AM 68.0 °F - 66.2 °F 94% 30.09 in 7.0 mi Calm Calm - N/A   Clear
12:55 AM 68.0 °F - 66.2 °F 94% 30.09 in 3.0 mi Calm Calm - N/A   Clear
1:15 AM 68.0 °F - 68.0 °F 100% 30.09 in 5.0 mi Calm Calm - N/A   Clear
1:35 AM 66.2 °F - 66.2 °F 100% 30.09 in 4.0 mi Calm Calm - N/A   Clear
1:55 AM 66.2 °F - 66.2 °F 100% 30.08 in 5.0 mi Calm Calm - N/A   Clear
2:15 AM 66.2 °F - 66.2 °F 100% 30.08 in 2.5 mi Calm Calm - N/A   Clear
2:35 AM 66.2 °F - 64.4 °F 94% 30.08 in 0.5 mi Calm Calm - N/A   Unknown
2:55 AM 64.4 °F - 64.4 °F 100% 30.08 in 0.8 mi Calm Calm - N/A   Unknown
3:15 AM 64.4 °F - 64.4 °F 100% 30.07 in 1.5 mi Calm Calm - N/A   Mostly Cloudy
3:35 AM 64.4 °F - 64.4 °F 100% 30.08 in 6.0 mi Calm Calm - N/A   Clear
3:55 AM 64.4 °F - 64.4 °F 100% 30.08 in 0.8 mi Calm Calm - N/A   Unknown
4:15 AM 64.4 °F - 64.4 °F 100% 30.08 in 0.2 mi Calm Calm - N/A   Unknown
4:35 AM 64.4 °F - 64.4 °F 100% 30.08 in 1.2 mi Calm Calm - N/A   Unknown
4:55 AM 64.4 °F - 64.4 °F 100% 30.08 in 6.0 mi Calm Calm - N/A   Clear
5:15 AM 64.4 °F - 64.4 °F 100% 30.09 in 1.8 mi Calm Calm - N/A   Clear
5:35 AM 64.4 °F - 64.4 °F 100% 30.09 in 3.0 mi Calm Calm - N/A   Clear
5:55 AM 64.4 °F - 64.4 °F 100% 30.09 in 1.2 mi Calm Calm - N/A   Clear
6:15 AM 64.4 °F - 64.4 °F 100% 30.10 in 3.0 mi Calm Calm - N/A   Clear
6:35 AM 64.4 °F - 64.4 °F 100% 30.11 in 0.8 mi Calm Calm - N/A   Unknown
6:55 AM 66.2 °F - 64.4 °F 94% 30.11 in 5.0 mi Calm Calm - N/A   Clear
7:15 AM 68.0 °F - 66.2 °F 94% 30.11 in 7.0 mi Calm Calm - N/A   Clear
7:35 AM 69.8 °F - 66.2 °F 88% 30.11 in 9.0 mi Calm Calm - N/A   Clear
7:55 AM 71.6 °F - 68.0 °F 88% 30.12 in 10.0 mi Calm Calm - N/A   Clear
8:15 AM 71.6 °F - 68.0 °F 88% 30.12 in 10.0 mi Calm Calm - N/A   Clear
8:35 AM 71.6 °F - 69.8 °F 94% 30.12 in 10.0 mi Calm Calm - N/A   Clear
8:55 AM 73.4 °F - 69.8 °F 88% 30.12 in 10.0 mi Calm Calm - N/A   Clear
9:15 AM 75.2 °F - 69.8 °F 83% 30.12 in 10.0 mi Calm Calm - N/A   Clear
9:35 AM 77.0 °F - 69.8 °F 78% 30.12 in 10.0 mi Calm Calm - N/A   Clear
9:55 AM 77.0 °F - 69.8 °F 78% 30.12 in 10.0 mi Calm Calm - N/A   Clear
10:15 AM 78.8 °F - 69.8 °F 74% 30.13 in 10.0 mi Calm Calm - N/A   Clear
10:35 AM 78.8 °F - 69.8 °F 74% 30.12 in 10.0 mi Calm Calm - N/A   Clear
10:55 AM 80.6 °F 84.6 °F 71.6 °F 74% 30.12 in 10.0 mi Calm Calm - N/A   Clear
11:15 AM 80.6 °F 83.9 °F 69.8 °F 70% 30.12 in 10.0 mi North 3.5 mph - N/A   Clear
11:35 AM 82.4 °F 87.2 °F 71.6 °F 70% 30.11 in 10.0 mi NE 4.6 mph - N/A   Scattered Clouds
11:55 AM 82.4 °F 86.3 °F 69.8 °F 66% 30.11 in 10.0 mi Calm Calm - N/A   Partly Cloudy
12:15 PM 84.2 °F 88.4 °F 69.8 °F 62% 30.10 in 10.0 mi Calm Calm - N/A   Partly Cloudy
12:35 PM 86.0 °F 91.8 °F 71.6 °F 62% 30.10 in 10.0 mi Calm Calm - N/A   Scattered Clouds
12:55 PM 84.2 °F 88.4 °F 69.8 °F 62% 30.09 in 10.0 mi Calm Calm - N/A   Scattered Clouds
1:15 PM 86.0 °F 90.4 °F 69.8 °F 58% 30.09 in 10.0 mi Calm Calm - N/A   Clear
1:35 PM 87.8 °F 92.6 °F 69.8 °F 55% 30.08 in 10.0 mi NNW 3.5 mph - N/A   Partly Cloudy
1:55 PM 87.8 °F 91.4 °F 68.0 °F 52% 30.07 in 10.0 mi Calm Calm - N/A   Partly Cloudy
2:15 PM 89.6 °F 94.7 °F 69.8 °F 52% 30.06 in 10.0 mi West 3.5 mph - N/A   Partly Cloudy
2:35 PM 89.6 °F 94.7 °F 69.8 °F 52% 30.05 in 10.0 mi Calm Calm - N/A   Partly Cloudy
2:55 PM 87.8 °F 92.6 °F 69.8 °F 55% 30.05 in 10.0 mi Calm Calm - N/A   Partly Cloudy
3:15 PM 87.8 °F 92.6 °F 69.8 °F 55% 30.04 in 10.0 mi WNW 3.5 mph - N/A   Scattered Clouds
3:35 PM 86.0 °F 90.4 °F 69.8 °F 58% 30.02 in 10.0 mi NNE 3.5 mph - N/A   Partly Cloudy
3:55 PM 87.8 °F 92.6 °F 69.8 °F 55% 30.03 in 10.0 mi NW 5.8 mph - N/A   Clear
4:15 PM 87.8 °F 92.6 °F 69.8 °F 55% 30.04 in 10.0 mi NW 5.8 mph - N/A   Clear
4:35 PM 86.0 °F 91.8 °F 71.6 °F 62% 30.04 in 10.0 mi WNW 8.1 mph - N/A   Scattered Clouds
4:55 PM 80.6 °F 84.6 °F 71.6 °F 74% 30.06 in 5.0 mi North 3.5 mph - N/A   Scattered Clouds
5:15 PM 78.8 °F - 71.6 °F 78% 30.06 in 10.0 mi North 4.6 mph - N/A   Clear
5:35 PM 77.0 °F - 69.8 °F 78% 30.06 in 10.0 mi ENE 3.5 mph - N/A   Clear
5:55 PM 77.0 °F - 69.8 °F 78% 30.06 in 10.0 mi ENE 3.5 mph - N/A   Clear
6:15 PM 75.2 °F - 68.0 °F 78% 30.07 in 10.0 mi North 3.5 mph - N/A   Clear
6:35 PM 75.2 °F - 69.8 °F 83% 30.08 in 10.0 mi Calm Calm - N/A   Mostly Cloudy
6:55 PM 75.2 °F - 68.0 °F 78% 30.08 in 10.0 mi Calm Calm - N/A   Scattered Clouds
7:15 PM 73.4 °F - 66.2 °F 78% 30.08 in 10.0 mi SSE 6.9 mph - N/A   Clear
7:35 PM 73.4 °F - 69.8 °F 88% 30.08 in 10.0 mi Calm Calm - N/A   Clear
7:55 PM 71.6 °F - 69.8 °F 94% 30.09 in 7.0 mi West 4.6 mph - N/A   Clear
8:15 PM 71.6 °F - 69.8 °F 94% 30.09 in 8.0 mi Calm Calm - N/A   Clear
8:35 PM 71.6 °F - 69.8 °F 94% 30.09 in 6.0 mi Calm Calm - N/A   Clear
8:55 PM 69.8 °F - 69.8 °F 100% 30.10 in 5.0 mi Calm Calm - N/A   Clear
9:15 PM 69.8 °F - 68.0 °F 94% 30.10 in 5.0 mi Calm Calm - N/A   Clear
9:35 PM 69.8 °F - 68.0 °F 94% 30.11 in 5.0 mi Calm Calm - N/A   Clear
9:55 PM 69.8 °F - 68.0 °F 94% 30.11 in 3.0 mi Calm Calm - N/A   Clear
10:15 PM 68.0 °F - 66.2 °F 94% 30.11 in 2.5 mi Calm Calm - N/A   Clear
10:35 PM 68.0 °F - 66.2 °F 94% 30.11 in 3.0 mi Calm Calm - N/A   Clear
10:55 PM 68.0 °F - 66.2 °F 94% 30.11 in 3.0 mi Calm Calm - N/A   Clear
11:15 PM 68.0 °F - 66.2 °F 94% 30.11 in 4.0 mi Calm Calm - N/A   Clear
11:35 PM 66.2 °F - 66.2 °F 100% 30.12 in 3.0 mi Calm Calm - N/A   Clear
11:55 PM 68.0 °F - 66.2 °F 94% 30.12 in 3.0 mi Calm Calm - N/A   Clear